Hourly Data Report for October 28, 2015

All times are specified in Local Standard Time (LST). Add 1 hour to adjust for Daylight Saving Time where and when it is observed.

EUREKA CLIMATE
NUNAVUT

79°59'21.000" N
85°56'02.000" W
10.00 m
2401199
71613
NEK

Download Data

Hourly Data (October 2015)
Hourly Data Report for October 28, 2015
Temp Definition
°C
Dew Point Temp Definition
°C
Rel Hum Definition
%
Wind Dir Definition
10's deg

Wind Spd Definition
km/h
Visibility Definition
km
Stn Press Definition
kPa
Hmdx Definition


Wind Chill Definition


Weather Definition


TIME
00:00 -31.0 -34.0 75 11 12   101.42   -41 LegendNANA
01:00 -29.6 -32.3 77 2 5   101.45   -35 LegendNANA
02:00 -30.3 -32.9 78 11 4   101.44   -35 LegendNANA
03:00 -31.4 -34.5 74 11 12   101.46   -42 LegendNANA
04:00 -31.0 -33.9 76 10 10   101.46   -40 LegendNANA
05:00 -30.6 -33.4 76 12 11   101.46   -40 LegendNANA
06:00 -30.8 -33.6 77 10 7   101.46   -38 LegendNANA
07:00 -29.4 -32.1 78 22 2   101.47   -32 LegendNANA
08:00 -29.6 -32.3 77 8 4   101.48   -34 LegendNANA
09:00 -30.1 -32.8 77 11 4   101.46   -35 LegendNANA
10:00 -30.0 -32.6 78 11 2   101.43   -32 LegendNANA
11:00 -30.4 -33.2 76 11 7   101.42   -38 LegendNANA
12:00 -27.6 -30.1 79 3 14   101.42   -38 LegendNANA
13:00 -31.4 -34.2 76 11 8   101.41   -40 LegendNANA
14:00 -28.1 -30.0 83 4 9   101.44   -36 LegendNANA
15:00 -27.3 -29.7 79 2 13   101.42   -37 LegendNANA
16:00 -27.5 -30.3 77 1 13   101.43   -38 LegendNANA
17:00 -22.7 -24.9 82 31 19   101.42   -34 LegendNANA
18:00 -26.4 -29.6 74 35 10   101.42   -35 LegendNANA
19:00 -26.9 -29.9 75 1 15   101.41   -38 LegendNANA
20:00 -26.7 -28.8 82 6 8   101.42   -34 LegendNANA
21:00 -28.8 -31.9 74 13 7   101.39   -36 LegendNANA
22:00 -30.1 -32.9 76 12 4   101.38   -35 LegendNANA
23:00 -29.6 -32.3 78 11 4   101.35   -34 LegendNANA

Notes on Data Quality.

Legend

  • E = Estimated
  • M = Missing
  • NA = Not Available
  • ‡ = Partner data that is not subject to review by the National Climate Archives
Date modified: